SCP
0 0 0 0 0 0 0 0 0 0 0 0 0 0 0 0 0 0 0 0 0 0 0 0 0 0 0 0 0 0 0 0 0 0 0 0 0 0 0 0 0 0 0 0 0 0 0 0 0 0 0 0 0 0
0 0 0 0 0 0 0 0 0 0 0 0 0 0 0 0 0 0 0 0 0 0 0 0 0 0 0 0 0 0 0 0 0 0 0 0 0 0 0 0 0 0 0 0 0 0 0 0 0 0 0 0 0 0
0 0 0 0 0 0 0 0 0 0 0 0 0 0 0 0 0 0 0 0 0 0 0 0 0 0 0 0 0 0 0 0 0 0 0 0 0 0 0 0 0 0 0 0 0 0 0 0 0 0 0 0 0 0
0 0 0 0 0 0 0 0 0 0 0 0 0 0 0 0 0 0 0 0 0 0 0 0 0 0 0 0 0 0 0 0 0 0 0 0 0 0 0 0 0 0 0 0 0 0 0 0 0 0 0 0 0 0
0 -0 0 0 0 0 0 0 0 0 0 0 0 0 0 0 0 0 0 0 0 0 0 0 0 0 0 0 0 0 0 0 0 0 0 0 0 0 0 0 0 0 0 0 0 0 0 0 0 0 0 0 0 0
0 -0 0 0 0 0 0 0 0 0 0 0 0 0 0 0 0 0 0 0 0 0 0 0 0 0 0 0 0 0 0 0 0 0 0 0 0 0 0 0 0 0 -0 0 0 0 0 0 0 0 0 0 0 0
0 0 0 0 0 0 0 0 0 0 0 0 0 0 0 0 0 0 0 0 0 0 0 0 0 0 0 0 0 0 0 0 0 0 0 0 -0 0 0 0 0 0 0 0 -0 0 0 0 -0 0 0 0 0 0
0 0 0 0 0 0 0 0 0 0 0 0 0 0 0 0 0 0 0 0 0 0 0 0 0 0 0 0 0 0 0 0 0 0 0 0 -0 -0 -0 -0 0 0 0 0 -0 0 0 0 0 -0 -0 -0 -0 0
0 0 0 0 0 0 0 0 0 0 0 0 0 0 0 0 0 0 0 0 0 0 0 0 0 0 0 0 0 0 0 0 0 0 0 0 0 -0 0 0 0 0 0 0 0 0 0 0 0 -0 -0 -0 0 0
0 0 0 0 0 0 0 0 0 0 0 0 0 0 0 0 0 0 0 0 0 0 0 0 0 0 0 0 0 0 0 0 0 0 0 0 0 0 0 0 0 0 0 0 0 0 0 0 0 0 0 0 0 0
0 0 -0 -0 0 0 0 0 0 0 0 0 0 0 0 0 0 0 0 0 0 0 0 0 0 0 0 0 0 0 0 0 0 0 0 0 0 0 0 0 0 0 0 0 0 0 0 0 0 0 0 0 0 0
0 0 0 0 0 0 0 0 0 0 0 0 0 0 0 0 0 0 0 0 0 0 0 0 0 0 0 0 0 0 0 0 0 0 0 0 0 0 0 0 0 0 0 0 0 0 0 0 0 0 0 0 0 0
0 0 0 0 0 0 0 0 0 0 0 0 0 0 0 0 0 0 0 0 0 0 0 0 0 0 0 0 0 0 0 0 0 0 0 0 0 0 0 0 0 0 0 0 0 0 0 0 0 0 0 0 0 0
-0 0 0 0 0 0 0 0 0 0 0 0 0 0 0 0 0 0 0 0 0 0 0 0 0 0 0 0 0 0 0 0 0 0 0 0 0 0 0 0 0 0 0 0 0 0 -0 0 0 0 0 0 0 0
0 0 0 0 0 0 0 0 0 0 0 0 0 0 0 0 0 0 0 0 0 0 0 0 0 0 0 0 0 0 0 0 0 0 0 0 0 0 0 0 0 0 0 0 0 0 0 0 0 0 0 0 0 0
0 0 0 0 0 0 0 0 0 0 0 0 0 0 0 0 0 0 0 0 0 0 0 0 0 0 0 0 0 0 0 0 0 0 0 0 0 0 0 0 0 0 0 0 -0 -0 0 0 0 0 0 0 0 0
0 0 0 0 0 0 0 0 0 0 0 0 0 0 0 0 0 0 0 0 0 0 0 0 0 0 0 0 0 0 0 0 0 0 0 0 0 0 0 0 0 0 0 0 0 0 0 0 0 0 0 0 0 0
0 0 0 0 0 0 0 0 0 0 0 0 0 0 0 0 0 0 0 0 0 0 0 0 0 0 0 0 0 0 0 0 0 0 0 0 0 0 0 0 0 0 0 0 0 0 0 0 0 0 0 0 0 0
0 0 0 0 0 0 0 0 0 0 0 0 0 0 0 0 0 0 0 0 0 0 0 0 0 0 0 0 0 0 0 0 0 0 0 0 0 0 0 0 0 0 0 0 0 0 0 0 0 0 0 0 0 0
0 0 0 0 0 0 0 0 0 0 0 0 0 0 0 0 0 0 0 0 0 0 0 0 0 0 0 0 0 0 0 0 0 0 0 0 0 0 0 0 0 0 0 0 0 0 0 0 0 0 0 0 0 0
0 0 0 0 0 0 0 0 0 0 0 0 0 0 0 0 0 0 0 0 0 0 0 0 0 0 0 0 0 0 0 0 0 0 0 0 0 0 0 0 0 0 0 0 0 0 0 0 0 0 0 0 0 0
0 0 0 0 0 0 0 0 0 0 0 0 0 0 0 0 0 0 0 0 0 0 0 0 0 0 0 0 0 0 0 0 0 0 -0 -0 -0 0 0 0 0 0 0 0 0 0 0 -0 -0 0 0 0 0 0
0 0 0 0 0 0 0 0 0 0 0 0 -0 0 0 0 0 0 0 0 0 0 0 0 0 0 0 0 0 0 0 0 0 0 0 0 0 0 0 0 0 0 0 0 0 0 0 0 0 0 0 0 0 0
0 0 0 0 0 0 0 0 0 0 0 0 0 0 0 0 0 0 0 0 0 0 0 0 0 0 0 0 0 0 0 -0 0 0 0 0 0 0 0 0 0 0 0 0 0 0 0 0 0 0 0 0 0 0
0 0 0 0 0 0 0 0 0 0 0 0 0 0 0 0 0 0 0 0 0 0 0 0 0 0 -0 0 0 0 0 0 -0 0 0 0 0 0 0 0 0 0 0 0 0 0 0 0 0 0 0 0 0 0
0 0 0 0 0 0 0 0 0 0 0 0 0 0 0 0 0 0 0 0 0 0 0 0 -0 0 0 0 -0 0 0 0 0 0 0 0 0 0 0 0 0 0 0 0 0 0 0 0 0 0 0 0 0 0
0 0 0 0 0 0 0 0 0 0 0 0 0 0 0 0 0 0 0 0 0 0 0 0 0 0 0 0 0 0 0 0 0 0 0 0 0 0 0 0 0 0 0 0 0 0 0 0 0 0 0 0 0 0
0 0 0 0 0 0 0 0 0 0 0 0 0 0 0 0 0 0 0 0 0 0 0 0 0 0 0 0 0 0 0 0 0 0 0 0 0 0 0 0 -0 -0 -0 0 0 0 0 0 0 0 0 0 0 0
0 0 0 0 0 0 0 0 0 0 0 0 0 0 0 0 0 0 0 0 0 0 0 0 0 0 0 0 -0 -0 0 0 0 0 0 0 0 0 0 0 0 0 0 0 0 0 0 0 0 0 0 0 0 0
0 0 0 0 0 0 0 0 0 0 0 0 0 0 0 0 0 0 0 0 0 0 0 0 -0 -0 0 0 0 0 0 0 0 0 0 0 0 0 0 0 0 0 0 0 0 0 0 0 0 0 0 0 0 0
0 0 0 0 0 0 0 0 0 0 0 0 0 0 0 0 0 0 0 0 0 0 0 0 0 0 0 0 0 0 0 0 0 0 0 0 0 0 0 0 0 0 0 0 0 0 0 0 0 0 0 0 0 0
0 0 0 0 0 0 0 0 0 0 0 0 0 0 0 0 0 0 0 0 0 -0 -0 0 0 0 0 0 0 0 0 0 0 0 0 0 0 0 0 0 0 0 0 0 0 0 0 0 0 0 0 0 0 0
0 0 0 0 0 0 0 0 0 0 0 0 0 0 0 0 0 0 0 -0 -0 -0 -0 0 0 0 0 0 0 0 0 0 0 0 0 0 0 0 0 0 0 0 0 0 0 0 0 0 0 0 0 0 0 0
Wind_Speed_500mb
25 23 23 23 19 18 19 19 19 14 12 11 12 12 13 13 14 9 10 6 7 10 24 26 24 20 11 5 5 4 6 7 7 6 5 6 5 8 2 4 7 9 9 6 4 5 12 12 11 16 9 7 5 10
19 21 22 22 21 20 18 17 20 21 18 16 14 14 13 14 12 10 7 16 18 21 21 29 39 38 32 21 1 3 1 4 7 7 2 4 3 2 4 5 3 4 10 5 13 10 8 8 8 15 6 7 9 9
20 21 23 20 19 19 20 18 16 21 23 22 19 15 14 15 13 12 9 10 15 19 33 33 17 10 34 47 40 13 6 7 8 7 11 4 3 6 7 9 4 7 9 5 5 5 13 20 14 16 13 14 3 9
17 21 21 20 19 20 18 19 18 17 21 22 23 19 18 17 15 14 14 16 16 9 6 11 3 9 17 23 40 47 24 7 14 7 5 5 4 10 6 4 5 7 13 5 11 18 18 21 27 16 14 10 5 12
23 19 19 20 21 19 18 20 20 18 18 21 24 21 20 18 15 15 17 11 11 7 7 24 34 5 7 17 36 47 52 16 8 3 3 5 7 5 1 2 5 8 9 9 10 6 11 16 19 17 9 8 3 11
23 20 15 19 19 22 22 20 20 20 19 20 22 21 23 19 13 9 5 6 3 4 8 8 11 2 3 12 31 39 52 37 12 3 7 3 6 6 5 5 11 22 25 14 9 35 16 17 20 10 12 8 16 11
25 21 16 19 21 25 25 23 21 20 20 19 21 22 22 19 14 8 3 1 5 4 5 14 19 3 5 11 23 28 39 23 16 8 8 11 7 11 2 6 17 20 7 8 7 5 7 7 11 15 21 15 10 15
22 22 20 19 24 25 26 23 22 21 21 19 18 19 19 16 13 12 14 14 9 8 6 4 9 14 7 9 13 18 25 23 18 10 5 8 14 7 6 9 32 24 6 4 7 9 10 14 3 5 6 13 7 2
18 15 15 19 24 23 25 20 21 21 21 15 13 11 10 9 8 9 8 9 8 12 7 4 4 6 12 4 9 13 15 5 6 5 3 7 3 7 3 18 20 15 10 16 13 11 10 14 16 18 15 18 10 4
19 13 14 18 14 11 13 17 19 17 8 3 9 7 7 10 13 12 7 7 9 10 11 8 7 7 5 7 5 7 3 6 5 3 13 5 4 5 7 15 11 8 8 7 11 11 14 15 13 12 10 4 14 29
10 7 8 18 12 13 15 16 14 4 7 8 8 6 12 16 12 7 5 6 8 6 12 12 18 5 2 2 3 2 6 2 7 5 8 3 5 3 5 3 3 8 13 16 18 16 14 13 11 6 16 25 33 37
7 9 9 11 13 10 11 13 8 6 5 5 6 6 13 9 6 5 6 4 7 8 9 9 9 18 6 5 5 5 4 3 4 4 6 5 5 9 10 20 25 27 26 29 24 17 15 12 12 19 30 35 31 30
8 8 9 11 11 10 11 10 5 8 5 4 3 2 7 7 5 8 10 6 4 7 6 2 5 6 9 7 8 4 5 4 7 6 3 3 14 19 20 26 26 25 24 25 27 27 31 34 33 30 29 23 17 20
7 9 13 13 11 9 11 7 7 9 4 3 4 4 6 5 6 6 5 3 7 8 12 11 6 9 5 4 4 7 3 4 5 2 6 5 29 25 28 32 32 32 32 35 36 35 35 36 39 40 37 30 23 23
9 9 8 8 12 8 9 4 12 11 0 2 3 3 7 7 11 16 18 12 9 9 9 5 3 4 3 6 3 5 3 1 3 4 4 32 41 25 28 29 31 33 32 33 30 30 33 34 35 39 34 29 25 25
9 5 7 12 9 6 4 7 14 7 1 3 4 6 8 7 8 9 7 7 8 7 4 4 3 5 6 3 5 4 7 6 3 3 18 38 30 28 28 26 26 27 24 28 26 23 27 27 27 30 28 25 22 18
5 4 6 8 10 6 7 13 8 1 1 5 7 12 18 18 18 8 11 14 14 4 4 7 7 2 2 5 4 2 3 2 7 21 31 36 42 41 36 32 29 25 25 26 25 26 26 25 24 21 20 23 18 16
2 5 6 11 5 10 14 2 1 2 6 6 7 9 13 11 6 6 15 21 8 1 4 6 8 8 5 4 2 4 8 22 33 41 45 42 40 35 30 27 22 25 31 29 25 25 23 20 14 17 14 12 9 9
3 4 8 6 13 6 3 2 2 4 8 9 13 17 6 3 16 10 9 9 13 14 10 8 9 4 3 4 4 15 27 29 36 42 39 34 31 28 27 31 35 35 32 29 24 23 20 15 13 11 8 7 9 8
3 3 21 17 6 5 3 2 3 6 6 8 9 10 7 10 12 15 15 20 18 10 14 8 4 2 1 8 17 27 35 38 47 45 40 32 31 30 36 34 34 32 28 25 19 14 10 10 11 12 10 7 7 7
18 12 7 5 7 3 3 3 5 5 7 5 7 8 8 11 8 10 17 13 15 9 7 7 3 3 8 18 29 38 38 37 38 43 47 43 37 37 36 33 31 26 20 16 10 10 9 11 15 15 12 14 16 17
10 7 6 6 3 4 6 3 4 6 3 3 9 11 7 6 7 12 12 21 10 15 9 19 17 15 24 29 24 22 25 28 36 37 34 36 42 40 37 31 24 20 15 12 11 11 14 15 16 17 15 17 20 20
7 9 6 3 3 3 0 3 3 6 2 3 4 6 8 3 5 9 10 11 13 36 39 42 44 49 49 44 41 46 40 39 44 42 39 37 33 27 23 19 10 6 10 14 14 13 11 11 13 15 17 17 16 13
2 4 3 3 5 6 3 5 7 4 4 5 4 4 6 5 7 10 6 8 22 21 23 32 37 51 51 45 38 34 29 27 33 36 34 28 27 25 19 15 11 8 6 7 9 7 7 7 6 5 5 5 4 6
5 3 3 7 5 3 6 2 5 1 4 3 4 1 6 7 6 6 3 8 26 28 25 28 36 40 43 40 35 30 24 11 15 25 26 15 14 23 19 13 9 7 7 8 4 5 4 4 1 5 8 9 12 14
4 3 3 6 3 2 1 3 2 4 6 6 4 7 5 6 6 6 3 19 26 26 33 30 30 29 27 23 22 20 19 16 8 13 18 12 13 10 6 3 3 5 7 5 4 4 5 7 8 9 9 9 13 15
5 3 3 5 5 2 6 6 5 2 6 7 4 5 5 6 5 3 18 25 27 29 27 22 15 10 11 14 17 17 19 18 18 23 29 20 16 15 13 9 8 12 13 13 12 8 5 4 3 3 7 12 18 23
4 3 1 9 7 9 4 4 6 7 4 7 6 8 4 3 4 11 20 29 31 33 27 23 22 21 27 28 26 28 27 29 33 31 27 19 14 12 13 15 15 13 11 6 1 4 6 9 12 16 21 27 30 30
3 8 5 9 7 9 10 8 6 5 6 4 6 3 4 5 18 34 38 37 37 30 33 33 30 27 28 25 22 16 10 7 6 9 9 9 6 9 10 10 10 9 9 10 13 16 19 21 23 25 27 31 30 31
10 10 8 8 7 8 11 12 7 1 5 10 12 20 19 20 28 36 37 35 30 27 25 24 21 17 15 14 13 9 5 4 1 7 13 13 8 8 10 14 18 21 20 20 21 20 19 19 23 28 30 25 31 37
9 9 10 11 8 15 23 30 24 15 11 19 33 41 32 27 28 24 24 24 25 23 19 18 16 14 12 9 5 4 4 10 11 10 8 9 11 12 13 11 6 8 8 12 16 18 21 23 25 22 23 26 26 31
18 13 9 6 6 14 20 25 28 35 34 32 27 32 29 20 12 10 18 18 15 13 12 13 12 14 15 12 4 4 4 6 5 9 10 14 19 12 12 14 13 11 11 13 16 19 21 22 22 21 23 26 31 35
14 13 8 6 5 5 7 7 8 12 15 10 9 16 13 7 6 7 13 11 11 10 10 13 12 11 10 12 11 6 8 8 3 4 7 10 12 9 5 6 7 10 13 15 16 20 24 27 27 27 29 34 37 37
Wind_Direction_500mb
321 311 317 326 314 298 281 272 271 288 290 282 285 285 298 308 327 322 230 208 245 264 273 252 248 240 240 220 163 311 10 355 46 73 135 197 166 218 189 263 189 177 152 213 92 97 263 148 108 171 202 248 246 161
313 318 308 315 318 314 301 283 270 268 276 277 279 273 288 291 306 322 248 245 263 269 269 275 272 260 239 228 329 315 216 226 165 97 142 115 135 93 139 251 2 268 186 210 188 221 263 278 281 271 280 269 261 219
309 308 321 313 307 311 315 298 284 269 266 266 270 271 276 287 294 305 292 276 285 284 292 275 276 230 240 238 227 223 239 203 170 147 144 155 170 135 168 239 209 244 168 223 1 269 240 259 248 268 278 306 327 98
300 317 316 331 315 302 305 313 302 283 270 265 266 268 268 276 285 296 300 291 284 282 299 282 305 205 260 224 210 214 229 175 146 150 123 138 178 189 207 189 188 217 143 214 265 289 293 266 245 247 266 307 357 106
282 298 308 310 330 329 307 297 303 295 284 269 263 261 264 272 274 286 304 298 259 235 285 292 303 163 172 205 211 207 209 214 179 114 117 213 154 125 7 83 247 185 215 171 226 273 269 291 336 237 236 167 120 101
281 280 294 306 301 319 323 321 300 296 288 273 261 259 261 264 261 277 265 245 177 320 305 307 314 277 355 207 195 199 203 211 223 227 240 198 159 159 165 226 189 345 245 237 290 325 261 317 338 280 213 226 135 145
287 274 271 292 306 301 307 309 313 297 292 272 256 255 260 258 243 232 259 191 161 332 286 305 316 303 41 139 169 191 200 209 211 217 240 147 172 171 176 231 303 336 128 315 256 2 11 44 83 101 130 126 102 123
284 280 265 273 286 298 301 296 304 298 295 277 251 246 244 243 240 238 227 237 251 303 277 279 277 322 24 169 139 160 173 196 209 227 223 143 143 217 229 277 345 346 315 337 35 259 289 296 3 178 255 255 324 176
300 300 279 286 293 291 298 288 299 301 298 270 239 230 224 211 196 177 185 192 230 230 287 226 262 265 350 63 135 153 164 132 183 153 212 125 338 233 335 322 335 357 314 296 332 359 341 303 291 288 282 239 245 184
281 273 303 311 309 305 293 301 306 308 304 222 174 170 182 172 163 160 176 189 202 216 226 237 230 256 324 11 61 108 114 149 138 253 127 73 257 290 304 315 303 337 353 315 292 354 346 342 335 334 302 138 125 141
226 246 319 344 306 296 311 317 314 299 137 141 167 175 151 159 165 186 205 205 185 249 215 236 222 247 244 93 164 83 162 151 125 242 135 200 248 240 324 53 92 96 85 70 52 37 4 343 346 39 105 115 129 137
252 272 299 329 332 314 306 315 311 175 135 183 194 151 155 182 182 191 210 178 202 234 208 200 245 217 235 217 115 11 115 53 120 144 109 193 230 182 138 100 96 92 85 76 77 81 84 89 91 123 124 120 118 115
298 315 329 315 334 330 306 314 273 187 155 143 160 207 189 170 173 207 188 223 241 219 202 250 273 223 197 186 82 103 91 194 133 52 207 233 159 148 115 108 103 98 88 89 96 98 111 113 121 121 125 122 107 98
313 315 310 310 320 311 299 299 199 169 147 184 207 207 226 188 257 210 210 259 283 257 307 283 239 195 166 108 139 101 233 86 86 113 229 174 165 142 129 115 116 109 105 102 98 100 107 103 100 99 99 96 104 104
294 308 313 337 323 319 315 279 175 155 27 254 268 212 230 266 274 277 292 277 261 295 336 151 117 172 30 106 43 121 100 63 171 218 219 173 164 146 140 132 121 119 112 106 107 105 104 104 103 101 101 105 107 113
297 305 333 336 319 291 311 168 161 157 293 292 274 289 281 306 313 337 338 331 337 348 97 59 100 82 53 85 73 35 135 194 227 198 154 159 171 161 149 140 134 125 128 127 126 117 108 105 100 99 104 100 99 93
192 323 323 323 315 307 151 145 157 191 265 248 259 260 268 277 263 304 327 336 317 303 115 85 11 42 63 79 86 20 145 219 146 140 148 146 139 139 139 136 130 128 130 136 132 123 115 116 119 118 104 95 87 74
277 305 318 309 302 138 137 113 63 238 265 265 256 290 320 267 301 354 359 346 331 111 120 138 131 53 59 92 187 190 108 130 139 135 134 137 139 145 152 148 139 141 142 138 133 122 117 117 107 93 86 75 33 3
222 311 315 130 119 71 49 238 244 274 261 296 314 340 350 43 39 53 3 37 87 84 100 59 73 75 85 19 92 126 145 139 135 133 129 134 141 148 146 139 138 135 133 128 124 121 117 103 87 78 57 19 340 358
261 160 134 130 107 22 348 279 261 285 280 325 336 3 34 17 23 44 60 59 62 56 47 36 48 42 78 91 148 150 144 144 131 121 121 124 128 136 141 140 140 137 133 128 119 106 86 84 78 65 56 46 35 49
103 109 95 22 345 325 251 268 260 278 341 353 351 33 36 31 40 33 45 28 57 39 62 39 356 338 118 122 148 141 142 147 148 146 142 141 150 152 144 146 144 141 136 121 104 102 93 93 83 66 62 63 67 86
44 51 27 32 341 308 296 260 280 353 346 2 25 23 27 5 27 32 47 46 54 38 71 92 101 145 146 134 140 145 143 144 134 128 134 146 145 147 146 145 146 141 133 112 88 105 111 92 73 68 61 68 78 85
21 1 341 331 296 275 27 33 354 23 83 53 56 18 327 275 82 63 72 49 72 96 89 87 97 103 113 122 124 123 122 123 123 124 125 126 126 130 136 138 127 87 126 120 97 78 76 88 87 75 72 74 76 72
316 296 292 275 236 273 140 38 15 8 103 87 86 268 240 61 79 67 67 44 80 97 110 109 109 106 98 97 106 118 126 129 126 130 129 125 122 125 124 120 121 119 109 111 118 108 98 105 119 101 72 47 2 328
315 240 283 283 236 276 99 212 273 207 80 67 251 12 49 56 71 62 57 40 96 103 113 121 125 115 113 108 103 97 96 113 144 145 140 132 118 134 132 129 137 162 182 194 196 178 162 172 244 289 272 294 314 314
255 210 191 331 11 35 119 185 156 112 199 220 152 95 87 83 65 67 67 126 110 118 125 123 118 114 108 104 103 100 93 95 118 190 155 122 80 68 99 140 195 192 186 187 226 239 269 266 277 292 295 303 322 314
338 356 2 357 337 4 71 67 92 277 18 40 43 66 72 76 86 107 141 134 126 126 128 122 110 105 123 137 130 111 99 101 115 135 136 120 110 86 81 81 108 111 109 117 113 109 87 74 55 356 320 310 312 314
284 305 12 341 51 44 75 44 23 25 29 31 65 40 68 70 115 151 157 143 132 128 128 125 118 116 124 124 120 118 108 107 116 126 131 133 124 108 96 94 103 107 108 115 150 302 288 295 296 300 304 305 304 306
135 135 125 43 51 51 43 23 358 25 5 27 102 99 108 101 125 139 142 138 140 134 131 131 121 123 128 129 131 124 110 101 107 138 161 179 213 231 233 226 224 231 243 256 271 279 276 277 285 295 307 311 314 318
40 77 85 54 49 23 1 346 331 158 82 95 102 120 110 118 134 142 140 143 145 150 148 151 145 141 145 157 167 162 144 135 191 287 293 296 292 272 264 260 261 265 270 284 298 305 301 287 291 303 312 318 324 323
78 72 59 57 74 75 78 71 83 105 95 96 119 118 110 111 123 137 149 156 161 161 163 169 175 181 183 169 183 200 150 142 111 91 71 37 14 343 315 315 1 16 358 336 324 314 305 304 310 313 314 321 333 338
80 82 93 71 63 61 80 70 73 83 92 94 93 107 110 104 93 123 149 154 172 195 214 221 224 245 234 218 253 253 274 156 79 46 27 11 5 31 75 84 70 43 21 6 0 359 353 343 332 323 319 323 327 327
102 107 88 76 61 66 55 94 74 60 54 56 60 80 84 75 102 128 144 155 175 188 184 144 128 127 151 162 123 138 158 171 195 350 358 5 23 42 44 10 351 341 340 337 334 334 334 329 325 321 321 324 325 322
Wind_Speed_850mb
25 23 23 23 19 18 19 19 19 14 12 11 12 12 13 13 14 9 10 6 7 10 24 26 24 20 11 5 5 4 6 7 7 6 5 6 5 8 2 4 7 9 9 6 4 5 12 12 11 16 9 7 5 10
19 21 22 22 21 20 18 17 20 21 18 16 14 14 13 14 12 10 7 16 18 21 21 29 39 38 32 21 1 3 1 4 7 7 2 4 3 2 4 5 3 4 10 5 13 10 8 8 8 15 6 7 9 9
20 21 23 20 19 19 20 18 16 21 23 22 19 15 14 15 13 12 9 10 15 19 33 33 17 10 34 47 40 13 6 7 8 7 11 4 3 6 7 9 4 7 9 5 5 5 13 20 14 16 13 14 3 9
17 21 21 20 19 20 18 19 18 17 21 22 23 19 18 17 15 14 14 16 16 9 6 11 3 9 17 23 40 47 24 7 14 7 5 5 4 10 6 4 5 7 13 5 11 18 18 21 27 16 14 10 5 12
23 19 19 20 21 19 18 20 20 18 18 21 24 21 20 18 15 15 17 11 11 7 7 24 34 5 7 17 36 47 52 16 8 3 3 5 7 5 1 2 5 8 9 9 10 6 11 16 19 17 9 8 3 11
23 20 15 19 19 22 22 20 20 20 19 20 22 21 23 19 13 9 5 6 3 4 8 8 11 2 3 12 31 39 52 37 12 3 7 3 6 6 5 5 11 22 25 14 9 35 16 17 20 10 12 8 16 11
25 21 16 19 21 25 25 23 21 20 20 19 21 22 22 19 14 8 3 1 5 4 5 14 19 3 5 11 23 28 39 23 16 8 8 11 7 11 2 6 17 20 7 8 7 5 7 7 11 15 21 15 10 15
22 22 20 19 24 25 26 23 22 21 21 19 18 19 19 16 13 12 14 14 9 8 6 4 9 14 7 9 13 18 25 23 18 10 5 8 14 7 6 9 32 24 6 4 7 9 10 14 3 5 6 13 7 2
18 15 15 19 24 23 25 20 21 21 21 15 13 11 10 9 8 9 8 9 8 12 7 4 4 6 12 4 9 13 15 5 6 5 3 7 3 7 3 18 20 15 10 16 13 11 10 14 16 18 15 18 10 4
19 13 14 18 14 11 13 17 19 17 8 3 9 7 7 10 13 12 7 7 9 10 11 8 7 7 5 7 5 7 3 6 5 3 13 5 4 5 7 15 11 8 8 7 11 11 14 15 13 12 10 4 14 29
10 7 8 18 12 13 15 16 14 4 7 8 8 6 12 16 12 7 5 6 8 6 12 12 18 5 2 2 3 2 6 2 7 5 8 3 5 3 5 3 3 8 13 16 18 16 14 13 11 6 16 25 33 37
7 9 9 11 13 10 11 13 8 6 5 5 6 6 13 9 6 5 6 4 7 8 9 9 9 18 6 5 5 5 4 3 4 4 6 5 5 9 10 20 25 27 26 29 24 17 15 12 12 19 30 35 31 30
8 8 9 11 11 10 11 10 5 8 5 4 3 2 7 7 5 8 10 6 4 7 6 2 5 6 9 7 8 4 5 4 7 6 3 3 14 19 20 26 26 25 24 25 27 27 31 34 33 30 29 23 17 20
7 9 13 13 11 9 11 7 7 9 4 3 4 4 6 5 6 6 5 3 7 8 12 11 6 9 5 4 4 7 3 4 5 2 6 5 29 25 28 32 32 32 32 35 36 35 35 36 39 40 37 30 23 23
9 9 8 8 12 8 9 4 12 11 0 2 3 3 7 7 11 16 18 12 9 9 9 5 3 4 3 6 3 5 3 1 3 4 4 32 41 25 28 29 31 33 32 33 30 30 33 34 35 39 34 29 25 25
9 5 7 12 9 6 4 7 14 7 1 3 4 6 8 7 8 9 7 7 8 7 4 4 3 5 6 3 5 4 7 6 3 3 18 38 30 28 28 26 26 27 24 28 26 23 27 27 27 30 28 25 22 18
5 4 6 8 10 6 7 13 8 1 1 5 7 12 18 18 18 8 11 14 14 4 4 7 7 2 2 5 4 2 3 2 7 21 31 36 42 41 36 32 29 25 25 26 25 26 26 25 24 21 20 23 18 16
2 5 6 11 5 10 14 2 1 2 6 6 7 9 13 11 6 6 15 21 8 1 4 6 8 8 5 4 2 4 8 22 33 41 45 42 40 35 30 27 22 25 31 29 25 25 23 20 14 17 14 12 9 9
3 4 8 6 13 6 3 2 2 4 8 9 13 17 6 3 16 10 9 9 13 14 10 8 9 4 3 4 4 15 27 29 36 42 39 34 31 28 27 31 35 35 32 29 24 23 20 15 13 11 8 7 9 8
3 3 21 17 6 5 3 2 3 6 6 8 9 10 7 10 12 15 15 20 18 10 14 8 4 2 1 8 17 27 35 38 47 45 40 32 31 30 36 34 34 32 28 25 19 14 10 10 11 12 10 7 7 7
18 12 7 5 7 3 3 3 5 5 7 5 7 8 8 11 8 10 17 13 15 9 7 7 3 3 8 18 29 38 38 37 38 43 47 43 37 37 36 33 31 26 20 16 10 10 9 11 15 15 12 14 16 17
10 7 6 6 3 4 6 3 4 6 3 3 9 11 7 6 7 12 12 21 10 15 9 19 17 15 24 29 24 22 25 28 36 37 34 36 42 40 37 31 24 20 15 12 11 11 14 15 16 17 15 17 20 20
7 9 6 3 3 3 0 3 3 6 2 3 4 6 8 3 5 9 10 11 13 36 39 42 44 49 49 44 41 46 40 39 44 42 39 37 33 27 23 19 10 6 10 14 14 13 11 11 13 15 17 17 16 13
2 4 3 3 5 6 3 5 7 4 4 5 4 4 6 5 7 10 6 8 22 21 23 32 37 51 51 45 38 34 29 27 33 36 34 28 27 25 19 15 11 8 6 7 9 7 7 7 6 5 5 5 4 6
5 3 3 7 5 3 6 2 5 1 4 3 4 1 6 7 6 6 3 8 26 28 25 28 36 40 43 40 35 30 24 11 15 25 26 15 14 23 19 13 9 7 7 8 4 5 4 4 1 5 8 9 12 14
4 3 3 6 3 2 1 3 2 4 6 6 4 7 5 6 6 6 3 19 26 26 33 30 30 29 27 23 22 20 19 16 8 13 18 12 13 10 6 3 3 5 7 5 4 4 5 7 8 9 9 9 13 15
5 3 3 5 5 2 6 6 5 2 6 7 4 5 5 6 5 3 18 25 27 29 27 22 15 10 11 14 17 17 19 18 18 23 29 20 16 15 13 9 8 12 13 13 12 8 5 4 3 3 7 12 18 23
4 3 1 9 7 9 4 4 6 7 4 7 6 8 4 3 4 11 20 29 31 33 27 23 22 21 27 28 26 28 27 29 33 31 27 19 14 12 13 15 15 13 11 6 1 4 6 9 12 16 21 27 30 30
3 8 5 9 7 9 10 8 6 5 6 4 6 3 4 5 18 34 38 37 37 30 33 33 30 27 28 25 22 16 10 7 6 9 9 9 6 9 10 10 10 9 9 10 13 16 19 21 23 25 27 31 30 31
10 10 8 8 7 8 11 12 7 1 5 10 12 20 19 20 28 36 37 35 30 27 25 24 21 17 15 14 13 9 5 4 1 7 13 13 8 8 10 14 18 21 20 20 21 20 19 19 23 28 30 25 31 37
9 9 10 11 8 15 23 30 24 15 11 19 33 41 32 27 28 24 24 24 25 23 19 18 16 14 12 9 5 4 4 10 11 10 8 9 11 12 13 11 6 8 8 12 16 18 21 23 25 22 23 26 26 31
18 13 9 6 6 14 20 25 28 35 34 32 27 32 29 20 12 10 18 18 15 13 12 13 12 14 15 12 4 4 4 6 5 9 10 14 19 12 12 14 13 11 11 13 16 19 21 22 22 21 23 26 31 35
14 13 8 6 5 5 7 7 8 12 15 10 9 16 13 7 6 7 13 11 11 10 10 13 12 11 10 12 11 6 8 8 3 4 7 10 12 9 5 6 7 10 13 15 16 20 24 27 27 27 29 34 37 37
Wind_Direction_850mb
321 311 317 326 314 298 281 272 271 288 290 282 285 285 298 308 327 322 230 208 245 264 273 252 248 240 240 220 163 311 10 355 46 73 135 197 166 218 189 263 189 177 152 213 92 97 263 148 108 171 202 248 246 161
313 318 308 315 318 314 301 283 270 268 276 277 279 273 288 291 306 322 248 245 263 269 269 275 272 260 239 228 329 315 216 226 165 97 142 115 135 93 139 251 2 268 186 210 188 221 263 278 281 271 280 269 261 219
309 308 321 313 307 311 315 298 284 269 266 266 270 271 276 287 294 305 292 276 285 284 292 275 276 230 240 238 227 223 239 203 170 147 144 155 170 135 168 239 209 244 168 223 1 269 240 259 248 268 278 306 327 98
300 317 316 331 315 302 305 313 302 283 270 265 266 268 268 276 285 296 300 291 284 282 299 282 305 205 260 224 210 214 229 175 146 150 123 138 178 189 207 189 188 217 143 214 265 289 293 266 245 247 266 307 357 106
282 298 308 310 330 329 307 297 303 295 284 269 263 261 264 272 274 286 304 298 259 235 285 292 303 163 172 205 211 207 209 214 179 114 117 213 154 125 7 83 247 185 215 171 226 273 269 291 336 237 236 167 120 101
281 280 294 306 301 319 323 321 300 296 288 273 261 259 261 264 261 277 265 245 177 320 305 307 314 277 355 207 195 199 203 211 223 227 240 198 159 159 165 226 189 345 245 237 290 325 261 317 338 280 213 226 135 145
287 274 271 292 306 301 307 309 313 297 292 272 256 255 260 258 243 232 259 191 161 332 286 305 316 303 41 139 169 191 200 209 211 217 240 147 172 171 176 231 303 336 128 315 256 2 11 44 83 101 130 126 102 123
284 280 265 273 286 298 301 296 304 298 295 277 251 246 244 243 240 238 227 237 251 303 277 279 277 322 24 169 139 160 173 196 209 227 223 143 143 217 229 277 345 346 315 337 35 259 289 296 3 178 255 255 324 176
300 300 279 286 293 291 298 288 299 301 298 270 239 230 224 211 196 177 185 192 230 230 287 226 262 265 350 63 135 153 164 132 183 153 212 125 338 233 335 322 335 357 314 296 332 359 341 303 291 288 282 239 245 184
281 273 303 311 309 305 293 301 306 308 304 222 174 170 182 172 163 160 176 189 202 216 226 237 230 256 324 11 61 108 114 149 138 253 127 73 257 290 304 315 303 337 353 315 292 354 346 342 335 334 302 138 125 141
226 246 319 344 306 296 311 317 314 299 137 141 167 175 151 159 165 186 205 205 185 249 215 236 222 247 244 93 164 83 162 151 125 242 135 200 248 240 324 53 92 96 85 70 52 37 4 343 346 39 105 115 129 137
252 272 299 329 332 314 306 315 311 175 135 183 194 151 155 182 182 191 210 178 202 234 208 200 245 217 235 217 115 11 115 53 120 144 109 193 230 182 138 100 96 92 85 76 77 81 84 89 91 123 124 120 118 115
298 315 329 315 334 330 306 314 273 187 155 143 160 207 189 170 173 207 188 223 241 219 202 250 273 223 197 186 82 103 91 194 133 52 207 233 159 148 115 108 103 98 88 89 96 98 111 113 121 121 125 122 107 98
313 315 310 310 320 311 299 299 199 169 147 184 207 207 226 188 257 210 210 259 283 257 307 283 239 195 166 108 139 101 233 86 86 113 229 174 165 142 129 115 116 109 105 102 98 100 107 103 100 99 99 96 104 104
294 308 313 337 323 319 315 279 175 155 27 254 268 212 230 266 274 277 292 277 261 295 336 151 117 172 30 106 43 121 100 63 171 218 219 173 164 146 140 132 121 119 112 106 107 105 104 104 103 101 101 105 107 113
297 305 333 336 319 291 311 168 161 157 293 292 274 289 281 306 313 337 338 331 337 348 97 59 100 82 53 85 73 35 135 194 227 198 154 159 171 161 149 140 134 125 128 127 126 117 108 105 100 99 104 100 99 93
192 323 323 323 315 307 151 145 157 191 265 248 259 260 268 277 263 304 327 336 317 303 115 85 11 42 63 79 86 20 145 219 146 140 148 146 139 139 139 136 130 128 130 136 132 123 115 116 119 118 104 95 87 74
277 305 318 309 302 138 137 113 63 238 265 265 256 290 320 267 301 354 359 346 331 111 120 138 131 53 59 92 187 190 108 130 139 135 134 137 139 145 152 148 139 141 142 138 133 122 117 117 107 93 86 75 33 3
222 311 315 130 119 71 49 238 244 274 261 296 314 340 350 43 39 53 3 37 87 84 100 59 73 75 85 19 92 126 145 139 135 133 129 134 141 148 146 139 138 135 133 128 124 121 117 103 87 78 57 19 340 358
261 160 134 130 107 22 348 279 261 285 280 325 336 3 34 17 23 44 60 59 62 56 47 36 48 42 78 91 148 150 144 144 131 121 121 124 128 136 141 140 140 137 133 128 119 106 86 84 78 65 56 46 35 49
103 109 95 22 345 325 251 268 260 278 341 353 351 33 36 31 40 33 45 28 57 39 62 39 356 338 118 122 148 141 142 147 148 146 142 141 150 152 144 146 144 141 136 121 104 102 93 93 83 66 62 63 67 86
44 51 27 32 341 308 296 260 280 353 346 2 25 23 27 5 27 32 47 46 54 38 71 92 101 145 146 134 140 145 143 144 134 128 134 146 145 147 146 145 146 141 133 112 88 105 111 92 73 68 61 68 78 85
21 1 341 331 296 275 27 33 354 23 83 53 56 18 327 275 82 63 72 49 72 96 89 87 97 103 113 122 124 123 122 123 123 124 125 126 126 130 136 138 127 87 126 120 97 78 76 88 87 75 72 74 76 72
316 296 292 275 236 273 140 38 15 8 103 87 86 268 240 61 79 67 67 44 80 97 110 109 109 106 98 97 106 118 126 129 126 130 129 125 122 125 124 120 121 119 109 111 118 108 98 105 119 101 72 47 2 328
315 240 283 283 236 276 99 212 273 207 80 67 251 12 49 56 71 62 57 40 96 103 113 121 125 115 113 108 103 97 96 113 144 145 140 132 118 134 132 129 137 162 182 194 196 178 162 172 244 289 272 294 314 314
255 210 191 331 11 35 119 185 156 112 199 220 152 95 87 83 65 67 67 126 110 118 125 123 118 114 108 104 103 100 93 95 118 190 155 122 80 68 99 140 195 192 186 187 226 239 269 266 277 292 295 303 322 314
338 356 2 357 337 4 71 67 92 277 18 40 43 66 72 76 86 107 141 134 126 126 128 122 110 105 123 137 130 111 99 101 115 135 136 120 110 86 81 81 108 111 109 117 113 109 87 74 55 356 320 310 312 314
284 305 12 341 51 44 75 44 23 25 29 31 65 40 68 70 115 151 157 143 132 128 128 125 118 116 124 124 120 118 108 107 116 126 131 133 124 108 96 94 103 107 108 115 150 302 288 295 296 300 304 305 304 306
135 135 125 43 51 51 43 23 358 25 5 27 102 99 108 101 125 139 142 138 140 134 131 131 121 123 128 129 131 124 110 101 107 138 161 179 213 231 233 226 224 231 243 256 271 279 276 277 285 295 307 311 314 318
40 77 85 54 49 23 1 346 331 158 82 95 102 120 110 118 134 142 140 143 145 150 148 151 145 141 145 157 167 162 144 135 191 287 293 296 292 272 264 260 261 265 270 284 298 305 301 287 291 303 312 318 324 323
78 72 59 57 74 75 78 71 83 105 95 96 119 118 110 111 123 137 149 156 161 161 163 169 175 181 183 169 183 200 150 142 111 91 71 37 14 343 315 315 1 16 358 336 324 314 305 304 310 313 314 321 333 338
80 82 93 71 63 61 80 70 73 83 92 94 93 107 110 104 93 123 149 154 172 195 214 221 224 245 234 218 253 253 274 156 79 46 27 11 5 31 75 84 70 43 21 6 0 359 353 343 332 323 319 323 327 327
102 107 88 76 61 66 55 94 74 60 54 56 60 80 84 75 102 128 144 155 175 188 184 144 128 127 151 162 123 138 158 171 195 350 358 5 23 42 44 10 351 341 340 337 334 334 334 329 325 321 321 324 325 322